NOAA 16 DEB, 41284

Orbit data source: Space-Track

NOAA 16 DEB, 41284 is space debris in SSO originally from a launch on Thu, 21 Sep 2000 UTC launched from the Air Force Western Test Range (AFWTR). Debris objects in space refer to the collection of defunct objects orbiting the Earth. Examples of debris include non-operational satellites, rocket bodies, and fragments generated from explosions, collisions, or faulty payload assembly.

Loading next visibility...
Identifier
41284, 2000-055GL
Orbit
SSO
Country
Flag of USUS
Related business
Manufacturer
Unknown
Mission
Spacecraft
Bus & Motor
Unknown
Mass
Unknown
Launch date (UTC)
2000-09-21 (25 years ago)
Launch vehicle
Unknown
Launch site
Air Force Western Test Range (AFWTR)
Object type
Payload
Rocket body
Debris
Shape & HBR
Unknown shape, 0.1 m
Radar Cross Section
Small (<0.1 m²)

Expand to show TLE details & history
Last TLE update: 14 hours ago

TLE from 14 hours ago
0 NOAA 16 DEB
1 41284U 00055GL  25349.86693803  .00002347  00000-0  13992-2 0  9997
2 41284  98.8543 315.0014 0077109 257.3390 101.9149 14.06781607508418
Epoch: 2025-12-15T20:48Z
TLE epoch observation values (Epoch: 2025-12-15T20:48:23.445Z)
Latitude
-0.00009°
Longitude
-81.85562°
Altitude
885.251 km
Speed
7.403 km/s
True Right ascension
21h 00m 00s
True Declination
0° 00' 00"
Sunlit
Object was in daylight at epoch
Visualization orbit readout
Latitude
Unknown
Longitude
Unknown
Altitude
Unknown
Speed
Unknown
Apparent Right ascension
Unknown
Apparent Declination
Unknown
Sunlit
N/A
Visualization observer readout
Local Sidereal Time
09:42:12
Azimuth
Unknown
Elevation
Unknown
Doppler factor
Unknown
Orbital elements
Apogee altitude
923.46 km
Perigee altitude
811.718 km
Semi-major axis
7,245.726 km
Eccentricity
0.00771
Inclination
98.8543°
RAAN
315.0014°
Arg. of periapsis
257.339°
True anomaly
102.77772°
Mean anomaly
101.9149°
Eccentric anomaly
102.34648°
Mean motion
3.51901 °/min
Orbital period
102.3 mins
BSTAR
0.0013992
Loading maneuver chart data...
Computing Atmospheric mass density...
Loading historical data...
Loading historical data...
Loading historical data...
Loading historical data...
Loading historical data...
Loading historical data...
Loading historical data...

Documentation

Showing up to 5 results
|